Simultaneous Nadir Overpasses (SNOs) Predictions

Prediction of SNOs between GOES-17 and METOP-C Satellite Orbit:

Table of predicted SNOs for the next 14.0 days since TLE Epoch: 7/16/2022
Index Date Time (GOES-17) GOES-17 Lat,Lon METOP-C Lat,Lon Distance(km) Time Diff (sec)
1 07/17/2022 06:49:01 -0.00,-137.28 -0.54,-139.81 287.46 80
2 07/18/2022 06:31:01 -0.00,-137.29 0.52,-134.81 282.13 80
3 07/19/2022 18:47:13 -0.00,-137.30 0.48,-139.38 236.90 80
4 07/20/2022 18:29:13 0.00,-137.30 -0.64,-134.38 332.59 80
5 07/22/2022 06:45:33 -0.00,-137.30 -0.38,-138.98 191.58 80
6 07/23/2022 06:27:33 -0.01,-137.30 0.75,-133.99 377.46 80
7 07/24/2022 18:43:45 0.01,-137.30 0.26,-138.56 142.76 80
8 07/25/2022 18:25:45 0.01,-137.29 -0.80,-133.55 425.91 80
9 07/27/2022 06:44:44 -0.02,-137.28 -0.20,-138.15 99.27 80
10 07/28/2022 06:21:24 -0.02,-137.27 0.87,-133.15 468.95 80
11 07/29/2022 18:40:16 0.01,-137.26 0.14,-137.71 52.93 80
